JTC751 KPIT-KVRB

Flight info

Callsign JTC751
Flight time 1h 40m
Altitude 43000
Route CKB COBBE PSK CAE OMN TRV
Aircraft C750/M-SBDE3FGHRWXY/S

Departure

Time 2026-05-05 15:07
Airport Pittsburgh International Airport (KPIT)

Arrival

Time 2026-05-05 16:47
Airport Vero Beach Regional Airport (KVRB)
Time Latitude Longitude Altitude Speed Heading
2026-05-05 14:55 40.49722 -80.22302 1152 ft 0 kts 171°
2026-05-05 15:03 40.49714 -80.22300 1152 ft 4 kts 171°
2026-05-05 15:03 40.49669 -80.22290 1152 ft 10 kts 170°
2026-05-05 15:03 40.49598 -80.22229 1151 ft 15 kts 139°
2026-05-05 15:03 40.49500 -80.22137 1151 ft 20 kts 136°
2026-05-05 15:04 40.49391 -80.21996 1151 ft 22 kts 135°
2026-05-05 15:04 40.49281 -80.21862 1151 ft 21 kts 136°
2026-05-05 15:04 40.49178 -80.21741 1151 ft 19 kts 139°
2026-05-05 15:04 40.49079 -80.21628 1150 ft 18 kts 138°
2026-05-05 15:05 40.48987 -80.21348 1149 ft 17 kts 91°
2026-05-05 15:05 40.48984 -80.21205 1149 ft 15 kts 92°
2026-05-05 15:05 40.48978 -80.21074 1149 ft 14 kts 94°
2026-05-05 15:06 40.48969 -80.20958 1149 ft 12 kts 117°
2026-05-05 15:06 40.48900 -80.20951 1147 ft 11 kts 220°
2026-05-05 15:06 40.48896 -80.21207 1147 ft 73 kts 272°
2026-05-05 15:06 40.48921 -80.22302 1151 ft 153 kts 272°
2026-05-05 15:07 40.48994 -80.23680 1889 ft 150 kts 266°
2026-05-05 15:07 40.49080 -80.25010 2878 ft 143 kts 267°
2026-05-05 15:07 40.49172 -80.26386 3439 ft 163 kts 268°
2026-05-05 15:07 40.49233 -80.28008 3842 ft 192 kts 268°
2026-05-05 15:08 40.49106 -80.29868 4218 ft 220 kts 247°
2026-05-05 15:08 40.48005 -80.31325 4779 ft 232 kts 211°
2026-05-05 15:08 40.46385 -80.31537 5015 ft 256 kts 178°
2026-05-05 15:08 40.44640 -80.30881 6017 ft 259 kts 170°
2026-05-05 15:09 40.42921 -80.30198 6992 ft 257 kts 178°
2026-05-05 15:09 40.41165 -80.30265 7926 ft 251 kts 195°
2026-05-05 15:09 40.40008 -80.30449 8652 ft 255 kts 194°
2026-05-05 15:09 40.37564 -80.30519 9918 ft 270 kts 186°
2026-05-05 15:10 40.36306 -80.30427 10352 ft 279 kts 185°
2026-05-05 15:10 40.34282 -80.30312 10584 ft 304 kts 186°
2026-05-05 15:10 40.32070 -80.30258 10689 ft 331 kts 186°
2026-05-05 15:10 40.29735 -80.30192 11363 ft 337 kts 185°
2026-05-05 15:11 40.27382 -80.30096 12180 ft 340 kts 185°
2026-05-05 15:11 40.25001 -80.30013 12847 ft 345 kts 185°
2026-05-05 15:11 40.22587 -80.29941 13552 ft 349 kts 185°
2026-05-05 15:11 40.20147 -80.29865 14159 ft 354 kts 185°
2026-05-05 15:12 40.17668 -80.29781 14719 ft 358 kts 185°
2026-05-05 15:12 40.15161 -80.29695 15290 ft 362 kts 184°
2026-05-05 15:12 40.12624 -80.29614 15857 ft 367 kts 184°
2026-05-05 15:12 40.10049 -80.29532 16441 ft 372 kts 184°
2026-05-05 15:13 40.07446 -80.29445 17043 ft 376 kts 184°
2026-05-05 15:13 40.04811 -80.29358 17673 ft 381 kts 184°
2026-05-05 15:13 40.02139 -80.29272 18279 ft 386 kts 184°
2026-05-05 15:13 39.99432 -80.29184 18830 ft 392 kts 184°
2026-05-05 15:14 39.96697 -80.29092 19448 ft 395 kts 184°
2026-05-05 15:14 39.93966 -80.29002 20021 ft 401 kts 184°
2026-05-05 15:14 39.91159 -80.28913 20616 ft 405 kts 184°
2026-05-05 15:14 39.88319 -80.28822 21215 ft 410 kts 184°
2026-05-05 15:15 39.85447 -80.28726 21814 ft 415 kts 183°
2026-05-05 15:15 39.82541 -80.28632 22369 ft 420 kts 183°
2026-05-05 15:15 39.79603 -80.28536 22949 ft 425 kts 183°
2026-05-05 15:15 39.76627 -80.28437 23519 ft 430 kts 183°
2026-05-05 15:16 39.73623 -80.28341 24025 ft 433 kts 183°
2026-05-05 15:16 39.70597 -80.28244 24540 ft 437 kts 184°
2026-05-05 15:16 39.67549 -80.28146 25037 ft 440 kts 184°
2026-05-05 15:16 39.64472 -80.28046 25541 ft 444 kts 184°
2026-05-05 15:17 39.61374 -80.27944 26031 ft 447 kts 184°
2026-05-05 15:17 39.58253 -80.27843 26560 ft 449 kts 184°
2026-05-05 15:17 39.55114 -80.27745 27048 ft 453 kts 184°
2026-05-05 15:17 39.51982 -80.27643 27570 ft 457 kts 184°
2026-05-05 15:18 39.48795 -80.27539 28078 ft 460 kts 184°
2026-05-05 15:18 39.45578 -80.27435 28614 ft 463 kts 184°
2026-05-05 15:18 39.42334 -80.27333 29101 ft 467 kts 185°
2026-05-05 15:18 39.39070 -80.27229 29603 ft 471 kts 184°
2026-05-05 15:19 39.35789 -80.27122 30176 ft 473 kts 184°
2026-05-05 15:19 39.32484 -80.27015 30529 ft 477 kts 184°
2026-05-05 15:19 39.29153 -80.26910 30916 ft 481 kts 184°
2026-05-05 15:19 39.25817 -80.26967 31425 ft 476 kts 191°
2026-05-05 15:20 39.22570 -80.27599 31967 ft 469 kts 199°
2026-05-05 15:20 39.19399 -80.28553 32489 ft 468 kts 200°
2026-05-05 15:20 39.16219 -80.29496 32971 ft 470 kts 200°
2026-05-05 15:20 39.13022 -80.30427 33400 ft 473 kts 200°
2026-05-05 15:21 39.09810 -80.31373 33960 ft 473 kts 201°
2026-05-05 15:21 39.06597 -80.32331 34464 ft 473 kts 201°
2026-05-05 15:21 39.03391 -80.33281 34990 ft 473 kts 201°
2026-05-05 15:21 39.00179 -80.34223 35505 ft 473 kts 201°
2026-05-05 15:22 38.96970 -80.35166 36015 ft 473 kts 202°
2026-05-05 15:22 38.93764 -80.36113 36495 ft 474 kts 202°
2026-05-05 15:22 38.90538 -80.37066 36928 ft 476 kts 202°
2026-05-05 15:22 38.87313 -80.38011 37468 ft 475 kts 202°
2026-05-05 15:23 38.84129 -80.38941 38001 ft 475 kts 202°
2026-05-05 15:23 38.80908 -80.39887 38529 ft 475 kts 202°
2026-05-05 15:23 38.77684 -80.40834 38961 ft 474 kts 202°
2026-05-05 15:23 38.74469 -80.41775 39442 ft 473 kts 201°
2026-05-05 15:24 38.71271 -80.42706 39859 ft 472 kts 201°
2026-05-05 15:24 38.68070 -80.43644 40219 ft 472 kts 201°
2026-05-05 15:24 38.64878 -80.44579 40721 ft 469 kts 200°
2026-05-05 15:24 38.61698 -80.45505 41156 ft 468 kts 200°
2026-05-05 15:25 38.58530 -80.46426 41584 ft 466 kts 200°
2026-05-05 15:25 38.55373 -80.47344 42040 ft 464 kts 199°
2026-05-05 15:25 38.52229 -80.48260 42491 ft 462 kts 199°
2026-05-05 15:25 38.49087 -80.49174 42900 ft 461 kts 199°
2026-05-05 15:26 38.45953 -80.50085 42986 ft 467 kts 199°
2026-05-05 15:26 38.39553 -80.51945 42998 ft 481 kts 198°
2026-05-05 15:27 38.32849 -80.53496 43012 ft 499 kts 192°
2026-05-05 15:27 38.25859 -80.54441 43002 ft 510 kts 192°
2026-05-05 15:28 38.18750 -80.55523 43013 ft 519 kts 192°
2026-05-05 15:28 38.11545 -80.56543 43016 ft 522 kts 191°
2026-05-05 15:29 38.04325 -80.57606 43024 ft 523 kts 192°
2026-05-05 15:29 37.97103 -80.58646 43023 ft 523 kts 192°
2026-05-05 15:30 37.89876 -80.59694 43061 ft 522 kts 192°
2026-05-05 15:30 37.82639 -80.60739 43060 ft 524 kts 191°
2026-05-05 15:31 37.75396 -80.61782 43047 ft 525 kts 192°
2026-05-05 15:31 37.68138 -80.62826 43014 ft 524 kts 192°
2026-05-05 15:32 37.60880 -80.63867 43023 ft 525 kts 192°
2026-05-05 15:32 37.53647 -80.64905 43019 ft 528 kts 192°
2026-05-05 15:33 37.46337 -80.65948 43022 ft 528 kts 192°
2026-05-05 15:33 37.39025 -80.66993 43022 ft 529 kts 192°
2026-05-05 15:34 37.31713 -80.68032 43024 ft 529 kts 192°
2026-05-05 15:34 37.24390 -80.69075 43075 ft 529 kts 192°
2026-05-05 15:35 37.17063 -80.70113 43080 ft 528 kts 192°
2026-05-05 15:35 37.09747 -80.71150 43064 ft 529 kts 192°
2026-05-05 15:36 37.02424 -80.71971 43071 ft 532 kts 191°
2026-05-05 15:36 36.95043 -80.72803 43057 ft 532 kts 191°
2026-05-05 15:37 36.87655 -80.73598 43107 ft 532 kts 191°
2026-05-05 15:37 36.80269 -80.74413 43105 ft 533 kts 191°
2026-05-05 15:38 36.72884 -80.75213 43102 ft 533 kts 191°
2026-05-05 15:38 36.65495 -80.76020 43094 ft 533 kts 191°
2026-05-05 15:39 36.58107 -80.76821 43081 ft 533 kts 191°
2026-05-05 15:39 36.50714 -80.77624 43033 ft 533 kts 191°
2026-05-05 15:40 36.43320 -80.78423 43042 ft 533 kts 191°
2026-05-05 15:40 36.35925 -80.79222 43060 ft 534 kts 191°
2026-05-05 15:41 36.28565 -80.80015 43073 ft 534 kts 191°
2026-05-05 15:41 36.21158 -80.80812 43078 ft 534 kts 191°
2026-05-05 15:42 36.13752 -80.81608 43048 ft 534 kts 191°
2026-05-05 15:42 36.06349 -80.82401 43065 ft 534 kts 191°
2026-05-05 15:43 35.98940 -80.83193 43049 ft 534 kts 191°
2026-05-05 15:43 35.91542 -80.83983 43035 ft 534 kts 191°
2026-05-05 15:44 35.84139 -80.84772 43095 ft 534 kts 191°
2026-05-05 15:44 35.76732 -80.85560 43100 ft 534 kts 191°
2026-05-05 15:45 35.69332 -80.86346 43096 ft 534 kts 191°
2026-05-05 15:45 35.61976 -80.87125 43086 ft 534 kts 191°
2026-05-05 15:46 35.54563 -80.87910 43105 ft 534 kts 191°
2026-05-05 15:46 35.47159 -80.88691 43119 ft 534 kts 191°
2026-05-05 15:47 35.39754 -80.89472 43103 ft 534 kts 191°
2026-05-05 15:47 35.32375 -80.90249 43119 ft 535 kts 191°
2026-05-05 15:48 35.24951 -80.91027 43099 ft 535 kts 191°
2026-05-05 15:48 35.17517 -80.91808 43117 ft 536 kts 191°
2026-05-05 15:49 35.10084 -80.92584 43087 ft 536 kts 191°
2026-05-05 15:49 35.02652 -80.93361 43086 ft 536 kts 191°
2026-05-05 15:50 34.95222 -80.94135 43085 ft 536 kts 191°
2026-05-05 15:50 34.87794 -80.94907 43092 ft 534 kts 192°
2026-05-05 15:51 34.80418 -80.95675 43115 ft 535 kts 192°
2026-05-05 15:51 34.73003 -80.96442 43118 ft 534 kts 192°
2026-05-05 15:52 34.65588 -80.97211 43080 ft 535 kts 192°
2026-05-05 15:52 34.58185 -80.97975 43114 ft 534 kts 192°
2026-05-05 15:53 34.50774 -80.98740 43109 ft 534 kts 192°
2026-05-05 15:53 34.43373 -80.99501 43117 ft 534 kts 192°
2026-05-05 15:54 34.35968 -81.00262 43117 ft 534 kts 192°
2026-05-05 15:54 34.28613 -81.01016 43118 ft 534 kts 192°
2026-05-05 15:55 34.21202 -81.01775 43113 ft 534 kts 192°
2026-05-05 15:55 34.13800 -81.02532 43079 ft 534 kts 192°
2026-05-05 15:56 34.06386 -81.03290 43129 ft 536 kts 193°
2026-05-05 15:56 34.00203 -81.03917 43134 ft 536 kts 192°
2026-05-05 15:57 33.92764 -81.04675 43128 ft 536 kts 193°
2026-05-05 15:57 33.85316 -81.05397 43107 ft 540 kts 190°
2026-05-05 15:58 33.77761 -81.05494 43120 ft 544 kts 188°
2026-05-05 15:58 33.70201 -81.05598 43127 ft 542 kts 188°
2026-05-05 15:59 33.62649 -81.05706 43075 ft 543 kts 188°
2026-05-05 15:59 33.55137 -81.05800 43120 ft 544 kts 189°
2026-05-05 16:00 33.47558 -81.05908 43111 ft 545 kts 189°
2026-05-05 16:00 33.39976 -81.06004 43129 ft 544 kts 189°
2026-05-05 16:01 33.32386 -81.06111 43130 ft 546 kts 189°
2026-05-05 16:01 33.24789 -81.06209 43127 ft 546 kts 189°
2026-05-05 16:02 33.17188 -81.06313 43125 ft 546 kts 189°
2026-05-05 16:02 33.09596 -81.06413 43123 ft 546 kts 189°
2026-05-05 16:03 33.01995 -81.06515 43129 ft 546 kts 189°
2026-05-05 16:03 32.94393 -81.06616 43129 ft 546 kts 189°
2026-05-05 16:04 32.86795 -81.06717 43128 ft 546 kts 189°
2026-05-05 16:04 32.79246 -81.06818 43118 ft 548 kts 189°
2026-05-05 16:05 32.71614 -81.06918 43117 ft 548 kts 189°
2026-05-05 16:05 32.63987 -81.07019 43119 ft 548 kts 189°
2026-05-05 16:06 32.56368 -81.07119 43077 ft 547 kts 189°
2026-05-05 16:06 32.48735 -81.07221 43121 ft 549 kts 189°
2026-05-05 16:07 32.41093 -81.07319 43120 ft 549 kts 189°
2026-05-05 16:07 32.33454 -81.07421 43122 ft 549 kts 189°
2026-05-05 16:08 32.25800 -81.07521 43124 ft 551 kts 189°
2026-05-05 16:08 32.18164 -81.07621 43129 ft 553 kts 189°
2026-05-05 16:09 32.10469 -81.07720 43132 ft 553 kts 189°
2026-05-05 16:09 32.02771 -81.07822 43063 ft 553 kts 189°
2026-05-05 16:10 31.95048 -81.07922 43100 ft 555 kts 189°
2026-05-05 16:10 31.87313 -81.08022 43099 ft 555 kts 189°
2026-05-05 16:11 31.79589 -81.08122 43102 ft 555 kts 189°
2026-05-05 16:12 31.64161 -81.08321 43114 ft 556 kts 188°
2026-05-05 16:13 31.44807 -81.08571 43114 ft 556 kts 189°
2026-05-05 16:13 31.37047 -81.08671 43120 ft 556 kts 189°
2026-05-05 16:14 31.21607 -81.08869 43119 ft 556 kts 189°
2026-05-05 16:15 31.06128 -81.09066 43113 ft 556 kts 189°
2026-05-05 16:16 30.90670 -81.09263 43124 ft 554 kts 189°
2026-05-05 16:17 30.79123 -81.09410 43125 ft 555 kts 189°
2026-05-05 16:18 30.67531 -81.09557 43125 ft 555 kts 189°
2026-05-05 16:19 30.55931 -81.09703 43120 ft 555 kts 189°
2026-05-05 16:19 30.44332 -81.09849 43122 ft 555 kts 189°
2026-05-05 16:20 30.28872 -81.10044 43121 ft 555 kts 189°
2026-05-05 16:22 30.09594 -81.10285 43083 ft 555 kts 189°
2026-05-05 16:23 29.94126 -81.10478 43131 ft 556 kts 189°
2026-05-05 16:23 29.82527 -81.10624 43128 ft 556 kts 189°
2026-05-05 16:24 29.74794 -81.10717 42937 ft 548 kts 189°
2026-05-05 16:24 29.67347 -81.10804 41465 ft 533 kts 190°
2026-05-05 16:25 29.63619 -81.10866 40765 ft 539 kts 190°
2026-05-05 16:25 29.56021 -81.10953 39336 ft 550 kts 189°
2026-05-05 16:25 29.52179 -81.10994 38540 ft 554 kts 189°
2026-05-05 16:26 29.44437 -81.11100 37103 ft 558 kts 189°
2026-05-05 16:26 29.36636 -81.11188 35627 ft 562 kts 189°
2026-05-05 16:27 29.32716 -81.11144 34867 ft 569 kts 184°
2026-05-05 16:27 29.28754 -81.10562 34111 ft 580 kts 175°
2026-05-05 16:27 29.24874 -81.09215 33324 ft 584 kts 165°
2026-05-05 16:27 29.21071 -81.07637 32560 ft 578 kts 164°
2026-05-05 16:28 29.17282 -81.06133 31797 ft 573 kts 166°
2026-05-05 16:28 29.13509 -81.04734 31040 ft 568 kts 167°
2026-05-05 16:28 29.09821 -81.03339 30300 ft 564 kts 165°
2026-05-05 16:28 29.06122 -81.01863 29505 ft 564 kts 165°
2026-05-05 16:29 29.02417 -81.00391 28760 ft 559 kts 165°
2026-05-05 16:29 28.98751 -80.98992 28024 ft 553 kts 166°
2026-05-05 16:29 28.95119 -80.97615 27300 ft 546 kts 166°
2026-05-05 16:29 28.91550 -80.96224 26578 ft 538 kts 165°
2026-05-05 16:30 28.88025 -80.94839 25869 ft 533 kts 166°
2026-05-05 16:30 28.84527 -80.93493 25166 ft 527 kts 166°
2026-05-05 16:30 28.81067 -80.92173 24455 ft 522 kts 166°
2026-05-05 16:30 28.77641 -80.90850 23776 ft 517 kts 166°
2026-05-05 16:31 28.74251 -80.89534 23033 ft 508 kts 166°
2026-05-05 16:31 28.70931 -80.88253 22367 ft 501 kts 166°
2026-05-05 16:31 28.67653 -80.86998 21702 ft 493 kts 166°
2026-05-05 16:31 28.64419 -80.85756 21066 ft 486 kts 166°
2026-05-05 16:32 28.61279 -80.84546 20460 ft 479 kts 165°
2026-05-05 16:32 28.58140 -80.83338 19832 ft 473 kts 165°
2026-05-05 16:32 28.55047 -80.82153 19211 ft 466 kts 165°
2026-05-05 16:32 28.52000 -80.80985 18601 ft 459 kts 165°
2026-05-05 16:33 28.48997 -80.79833 17958 ft 453 kts 165°
2026-05-05 16:33 28.46022 -80.78692 17359 ft 448 kts 165°
2026-05-05 16:33 28.43083 -80.77566 16771 ft 443 kts 165°
2026-05-05 16:33 28.40174 -80.76454 16184 ft 438 kts 165°
2026-05-05 16:34 28.37294 -80.75352 15598 ft 434 kts 165°
2026-05-05 16:34 28.34449 -80.74264 15025 ft 430 kts 165°
2026-05-05 16:34 28.31628 -80.73186 14458 ft 426 kts 165°
2026-05-05 16:34 28.28825 -80.72115 13886 ft 421 kts 164°
2026-05-05 16:35 28.26096 -80.71074 13304 ft 416 kts 164°
2026-05-05 16:35 28.23338 -80.70022 12746 ft 411 kts 164°
2026-05-05 16:35 28.20718 -80.69021 12220 ft 388 kts 164°
2026-05-05 16:35 28.18263 -80.68081 11715 ft 358 kts 164°
2026-05-05 16:36 28.15979 -80.67212 11257 ft 334 kts 164°
2026-05-05 16:36 28.13830 -80.66399 10722 ft 317 kts 164°
2026-05-05 16:36 28.11751 -80.65800 10281 ft 301 kts 171°
2026-05-05 16:36 28.09730 -80.65421 9813 ft 284 kts 173°
2026-05-05 16:37 28.07780 -80.64992 9325 ft 285 kts 171°
2026-05-05 16:37 28.05833 -80.64473 8841 ft 291 kts 168°
2026-05-05 16:37 28.03921 -80.63969 8183 ft 267 kts 170°
2026-05-05 16:37 28.02183 -80.63544 7519 ft 246 kts 169°
2026-05-05 16:38 28.00552 -80.63150 6858 ft 236 kts 169°
2026-05-05 16:38 27.98970 -80.62758 6218 ft 231 kts 168°
2026-05-05 16:38 27.97412 -80.62368 5537 ft 228 kts 167°
2026-05-05 16:38 27.95871 -80.61984 4908 ft 226 kts 167°
2026-05-05 16:39 27.94341 -80.61605 4321 ft 223 kts 166°
2026-05-05 16:39 27.92803 -80.61224 4009 ft 223 kts 166°
2026-05-05 16:39 27.91293 -80.60848 3868 ft 221 kts 166°
2026-05-05 16:39 27.89785 -80.60475 3706 ft 223 kts 166°
2026-05-05 16:40 27.88268 -80.60098 3556 ft 224 kts 166°
2026-05-05 16:40 27.86765 -80.59725 3401 ft 224 kts 164°
2026-05-05 16:40 27.85244 -80.59348 3238 ft 224 kts 165°
2026-05-05 16:40 27.83704 -80.58965 3019 ft 226 kts 165°
2026-05-05 16:41 27.82193 -80.58591 2729 ft 225 kts 164°
2026-05-05 16:41 27.80676 -80.58219 2431 ft 221 kts 165°
2026-05-05 16:41 27.79150 -80.58235 1990 ft 225 kts 193°
2026-05-05 16:41 27.77722 -80.58863 1985 ft 211 kts 198°
2026-05-05 16:42 27.76406 -80.59419 1970 ft 199 kts 196°
2026-05-05 16:42 27.75105 -80.59950 1975 ft 198 kts 197°
2026-05-05 16:42 27.73823 -80.60441 1953 ft 191 kts 190°
2026-05-05 16:42 27.72550 -80.60297 1958 ft 188 kts 157°
2026-05-05 16:43 27.71505 -80.59483 1965 ft 178 kts 127°
2026-05-05 16:43 27.70933 -80.58263 1995 ft 179 kts 108°
2026-05-05 16:43 27.70493 -80.56921 2012 ft 183 kts 108°
2026-05-05 16:43 27.70042 -80.55592 2012 ft 182 kts 109°
2026-05-05 16:44 27.69593 -80.54252 1989 ft 180 kts 108°
2026-05-05 16:44 27.69155 -80.52938 1864 ft 177 kts 108°
2026-05-05 16:44 27.68869 -80.52086 1715 ft 179 kts 108°
2026-05-05 16:44 27.68435 -80.50785 1460 ft 162 kts 109°
2026-05-05 16:45 27.67973 -80.49405 1191 ft 124 kts 108°
2026-05-05 16:45 27.67681 -80.48530 1045 ft 118 kts 107°
2026-05-05 16:45 27.67385 -80.47646 881 ft 124 kts 109°
2026-05-05 16:45 27.67097 -80.46786 755 ft 112 kts 107°
2026-05-05 16:46 27.66915 -80.46228 684 ft 113 kts 106°
2026-05-05 16:46 27.66639 -80.45405 500 ft 118 kts 108°
2026-05-05 16:46 27.66351 -80.44577 416 ft 111 kts 106°
2026-05-05 16:46 27.66073 -80.43759 278 ft 122 kts 108°
2026-05-05 16:47 27.65788 -80.42866 101 ft 115 kts 107°
2026-05-05 16:47 27.65534 -80.42093 28 ft 90 kts 110°
2026-05-05 16:47 27.65378 -80.41640 26 ft 44 kts 110°
2026-05-05 16:47 27.65318 -80.41530 26 ft 8 kts 181°
2026-05-05 16:48 27.65268 -80.41546 26 ft 6 kts 197°
2026-05-05 16:48 27.65216 -80.41590 27 ft 13 kts 229°
2026-05-05 16:48 27.65167 -80.41638 27 ft 2 kts 265°
2026-05-05 16:48 27.65174 -80.41659 27 ft 0 kts 290°